Volver al catálogo

STARLINK-32033

ActivoComunicacionesVLEO
NORAD 60144·PAYLOAD·🇺🇸 United States

Lanzado Jun 27, 2024 desde Cape Canaveral Space Force Station

Loading…

Próximos Pases (próximas 24 horas)

TLE

ActualizadoSource: CelesTrak SupGP

Época: Sep 14, 2026, 22:37 UTC

1 60144C 24120K   26257.94284722 -.00056102  00000+0 -16574-2 0  2571
2 60144  53.1561 157.9966 0001310  86.9076 221.4479 15.34422109    13

Sigue STARLINK-32033 en tiempo real con AllMySat

Download on the App Store